EW7745 Weather Reports


time (UTC)temp
F
wind
direction
speed
knots
gust
knots
rain 1hr
in
rain 24hr
in
rain mn
in
humidity
%
barometer
mb
20260507191026 63 344 4.3 7.8 0.00 0.10 0.04 29 1006.1
20260507190040 64 275 2.6 5.2 0.00 0.11 0.04 29 1006.2
20260507185043 62 336 5.2 9.6 0.00 0.12 0.04 31 1006.4
20260507184045 63 319 4.3 7.0 0.00 0.12 0.04 29 1006.4
20260507183023 63 340 3.5 7.0 0.00 0.12 0.04 30 1006.5
20260507182020 63 319 5.2 8.7 0.00 0.12 0.04 27 1006.6
20260507181025 63 328 2.6 7.0 0.00 0.12 0.04 30 1006.6
20260507180026 64 323 5.2 8.7 0.00 0.12 0.04 29 1006.7
20260507175019 62 312 4.3 7.0 0.00 0.12 0.04 30 1006.7
20260507174024 63 328 2.6 5.2 0.00 0.12 0.04 32 1006.7
20260507173023 63 342 4.3 9.6 0.00 0.12 0.04 30 1006.7
20260507172023 63 324 5.2 8.7 0.00 0.12 0.04 32 1006.6
20260507171024 64 340 3.5 5.2 0.00 0.12 0.04 34 1006.9
20260507170023 62 320 4.3 8.7 0.00 0.12 0.04 32 1007.1
20260507165026 64 313 3.5 7.8 0.00 0.12 0.04 33 1007.1
20260507164028 62 338 4.3 7.8 0.00 0.12 0.04 37 1007.3
20260507163020 62 309 3.5 7.8 0.00 0.12 0.04 36 1007.3
20260507162045 62 333 3.5 8.7 0.00 0.12 0.04 37 1007.4
20260507161023 61 339 4.3 7.0 0.00 0.12 0.04 40 1007.5
20260507160020 61 328 5.2 7.0 0.00 0.12 0.04 43 1007.5
20260507155033 61 359 3.5 6.1 0.00 0.12 0.04 41 1007.6
20260507154023 59 349 3.5 6.1 0.00 0.12 0.04 47 1007.6
20260507153044 60 336 2.6 4.3 0.00 0.12 0.04 48 1007.5
20260507152024 59 323 3.5 7.8 0.00 0.12 0.04 49 1007.7
20260507151025 60 329 3.5 6.1 0.00 0.12 0.04 51 1007.8
20260507150029 59 341 3.5 7.0 0.00 0.12 0.04 54 1007.9
20260507145023 58 302 1.7 5.2 0.00 0.12 0.04 59 1008.0
20260507144020 57 318 2.6 5.2 0.00 0.12 0.04 57 1008.2
20260507143023 57 314 3.5 8.7 0.00 0.12 0.04 59 1008.2
20260507142019 58 330 2.6 7.0 0.00 0.12 0.04 58 1008.2
20260507141020 57 330 2.6 5.2 0.00 0.12 0.04 60 1008.2
20260507140026 57 325 2.6 4.3 0.00 0.12 0.04 61 1008.1
20260507135019 56 195 3.5 6.1 0.00 0.12 0.04 62 1008.0
20260507134018 55 323 2.6 4.3 0.00 0.12 0.04 64 1008.0
20260507133026 55 328 3.5 6.1 0.00 0.12 0.04 65 1008.1
20260507132023 55 312 2.6 5.2 0.00 0.12 0.04 64 1008.2
20260507131019 55 335 2.6 5.2 0.00 0.12 0.04 66 1008.4
20260507130040 54 327 3.5 6.1 0.00 0.12 0.04 67 1008.3
20260507125026 53 351 2.6 3.5 0.00 0.12 0.04 70 1008.4
20260507124048 53 326 1.7 3.5 0.00 0.12 0.04 72 1008.5
20260507123020 52 347 2.6 3.5 0.00 0.12 0.04 77 1008.5
20260507122024 51 350 2.6 3.5 0.00 0.12 0.04 78 1008.5
20260507121025 51 341 2.6 5.2 0.00 0.12 0.04 80 1008.6
20260507120024 50 325 1.7 3.5 0.00 0.12 0.04 83 1008.4
20260507114025 50 0.0 0.0 0.00 0.12 0.04 89 1008.5
20260507113019 49 0.0 0.0 0.00 0.12 0.04 90 1008.4
20260507112024 49 0.0 0.0 0.00 0.12 0.04 91 1008.5
20260507111024 49 0.0 0.0 0.00 0.12 0.04 91 1008.3
20260507110024 48 0.0 0.0 0.00 0.12 0.04 91 1008.0
20260507105024 48 0.0 0.0 0.00 0.12 0.04 91 1008.3
20260507104024 48 0.0 0.0 0.00 0.12 0.04 90 1008.3
20260507103023 48 0.0 0.0 0.01 0.12 0.04 90 1007.9
20260507102026 48 0.0 0.0 0.01 0.12 0.04 90 1007.7
20260507101023 48 0.0 0.0 0.01 0.12 0.04 90 1007.6
20260507100019 48 328 0.9 2.6 0.02 0.12 0.04 89 1007.6
20260507095019 48 2 0.0 0.9 0.02 0.12 0.04 89 1007.5
20260507094040 48 304 0.9 2.6 0.02 0.12 0.04 89 1007.5
20260507093020 48 345 0.0 0.9 0.01 0.11 0.03 88 1007.7
20260507092025 48 320 2.6 3.5 0.01 0.11 0.03 87 1007.9
20260507091023 49 320 0.9 2.6 0.01 0.11 0.03 87 1007.8
20260507090020 49 329 0.9 2.6 0.00 0.10 0.02 86 1008.1
20260507085045 49 305 0.9 1.7 0.00 0.10 0.02 85 1008.1
20260507084024 49 323 1.7 2.6 0.00 0.10 0.02 85 1007.9
20260507083023 49 318 0.9 2.6 0.02 0.10 0.02 86 1007.8
20260507082023 49 0.0 0.9 0.02 0.10 0.02 86 1007.7
20260507081025 49 319 0.9 2.6 0.02 0.10 0.02 86 1007.4
20260507080026 50 309 0.9 2.6 0.02 0.10 0.02 86 1007.6
20260507075020 50 328 1.7 4.3 0.02 0.10 0.02 85 1007.9
20260507074024 51 311 0.9 3.5 0.02 0.10 0.02 85 1007.6
20260507073026 52 322 1.7 3.5 0.00 0.08 0.00 81 1007.7
20260507072024 52 326 1.7 4.3 0.00 0.08 0.00 81 1007.3
20260507071020 52 318 1.7 2.6 0.00 0.08 0.00 81 1007.0
20260507070025 53 312 0.9 2.6 0.00 0.08 0.00 82 1006.9
20260507065023 53 334 0.9 2.6 0.00 0.08 0.00 83 1006.8
20260507064019 53 314 0.9 2.6 0.00 0.08 0.00 83 1006.8
20260507063024 54 338 0.0 1.7 0.00 0.08 0.00 83 1007.0
20260507062027 54 328 1.7 4.3 0.00 0.08 0.00 83 1007.0
20260507061024 54 326 1.7 2.6 0.00 0.08 0.00 83 1006.9
20260507060020 54 342 1.7 2.6 0.00 0.08 0.00 83 1006.8
20260507055043 55 330 1.7 2.6 0.00 0.08 0.00 83 1007.0
20260507054026 55 320 2.6 2.6 0.00 0.08 0.00 83 1007.1
20260507053023 55 325 3.5 7.0 0.00 0.08 0.00 83 1007.3
20260507052019 56 328 3.5 5.2 0.00 0.08 0.00 84 1007.3
20260507051027 56 321 2.6 4.3 0.00 0.08 0.00 86 1007.3
20260507050023 56 319 1.7 2.6 0.00 0.08 0.00 86 1007.1
20260507045020 57 326 0.9 2.6 0.00 0.08 0.00 87 1007.2
20260507044030 57 329 2.6 3.5 0.00 0.08 0.00 87 1007.2
20260507043023 57 328 0.0 1.7 0.00 0.08 0.00 87 1007.0
20260507042024 57 334 1.7 4.3 0.00 0.08 0.00 87 1007.1
20260507041024 58 321 1.7 5.2 0.00 0.08 0.00 86 1007.0
20260507040105 58 324 2.6 4.3 0.00 0.08 0.00 86 1007.0
20260507035028 59 327 3.5 7.0 0.00 0.08 0.08 88 1007.1
20260507034024 59 310 0.9 3.5 0.00 0.08 0.08 90 1006.9
20260507033020 59 322 0.9 2.6 0.00 0.08 0.08 91 1006.6
20260507032026 59 335 0.9 4.3 0.00 0.08 0.08 92 1006.5
20260507031019 59 306 0.9 2.6 0.00 0.08 0.08 92 1006.4
20260507030021 59 0.0 0.0 0.00 0.08 0.08 92 1006.3
20260507025025 59 0.0 0.0 0.00 0.08 0.08 92 1006.0
20260507024044 59 0.0 0.0 0.00 0.08 0.08 92 1006.0
20260507023039 59 0.0 0.0 0.00 0.08 0.08 91 1006.1
20260507022026 59 0.0 0.0 0.00 0.08 0.08 91 1006.2
20260507021023 59 0.0 0.9 0.00 0.08 0.08 91 1006.1
20260507020019 59 0.0 0.9 0.00 0.08 0.08 91 1006.1
20260507015101 59 268 0.0 1.7 0.00 0.08 0.08 91 1006.1
20260507014026 59 0.0 0.0 0.00 0.08 0.08 91 1006.0
20260507013023 59 139 1.7 3.5 0.00 0.08 0.08 92 1006.1
20260507012020 59 161 0.9 2.6 0.00 0.08 0.08 92 1006.1
20260507011023 59 105 0.9 2.6 0.00 0.08 0.08 92 1006.2
20260507010025 59 167 1.7 3.5 0.00 0.08 0.08 92 1006.2
20260507005044 59 161 0.9 3.5 0.00 0.08 0.08 92 1006.3
20260507004020 59 127 0.0 2.6 0.00 0.08 0.08 92 1006.2
20260507003025 59 143 0.0 2.6 0.00 0.08 0.08 92 1006.2
20260507002019 59 114 0.0 2.6 0.00 0.08 0.08 92 1006.1
20260507001023 59 140 0.0 2.6 0.00 0.08 0.08 92 1006.1
20260507000024 59 98 0.0 0.9 0.02 0.08 0.08 92 1005.9
20260506235023 59 148 0.9 3.5 0.02 0.08 0.08 92 1005.9
20260506234024 59 171 2.6 4.3 0.02 0.08 0.08 92 1005.8
20260506233024 59 167 0.9 2.6 0.02 0.08 0.08 92 1005.9
20260506232023 60 89 0.0 2.6 0.02 0.08 0.08 91 1005.9
20260506231026 60 160 0.0 1.7 0.02 0.08 0.08 91 1005.8
20260506230023 60 170 0.0 2.6 0.00 0.06 0.06 90 1005.9
20260506225020 60 182 1.7 3.5 0.00 0.06 0.06 90 1006.1
20260506224026 60 15 0.0 2.6 0.00 0.06 0.06 90 1006.1
20260506223040 60 0.0 0.0 0.00 0.06 0.06 90 1006.1
20260506222027 60 160 0.0 1.7 0.01 0.06 0.06 89 1006.1
20260506221044 60 168 0.9 3.5 0.01 0.06 0.06 89 1006.3
20260506220024 61 198 0.9 3.5 0.01 0.06 0.06 89 1006.3
20260506215020 60 178 0.9 2.6 0.01 0.06 0.06 89 1006.3
20260506214025 60 201 0.9 2.6 0.01 0.06 0.06 89 1006.6
20260506213043 60 175 1.7 3.5 0.01 0.06 0.06 88 1006.7
20260506212140 60 164 0.9 2.6 0.00 0.05 0.05 88 1006.7
20260506211023 60 174 0.9 3.5 0.01 0.05 0.05 88 1006.8
20260506210026 60 141 0.9 2.6 0.01 0.05 0.05 88 1006.8
20260506205027 60 137 1.7 4.3 0.01 0.05 0.05 87 1006.9
20260506204020 60 158 2.6 6.1 0.01 0.05 0.05 87 1007.0
20260506203023 61 175 3.5 6.1 0.02 0.05 0.05 87 1007.0
20260506202045 61 179 0.9 3.5 0.03 0.05 0.05 87 1007.0
20260506201044 61 171 1.7 3.5 0.02 0.04 0.04 87 1007.1
20260506200019 61 184 1.7 6.1 0.03 0.04 0.04 86 1007.0
20260506195028 62 173 1.7 3.5 0.04 0.04 0.04 85 1007.0
20260506194023 62 156 1.7 4.3 0.04 0.04 0.04 85 1007.0
20260506193020 63 166 0.9 2.6 0.03 0.03 0.03 83 1007.0
20260506192044 64 179 0.9 3.5 0.02 0.02 0.02 81 1007.0